EIN988 KMSP-EIDW

Flight info

Callsign EIN988
Flight time N/A
Altitude 35000
Route WLSTN7 WLSTN DCT SSM DCT ROUND DCT TEALS DCT ALSOP DCT AVUTI/M079F350 DCT 59N050W 60N040W 60N030W 59N020W DCT AGORI/N0453F350 DCT OSBOX DCT REVNU DCT OLAPO OLAPO3R
Aircraft A21N/M-SDE2E3FGHIRWXY/LB1

Departure

Time 2026-05-04 12:54
Airport Minneapolis–Saint Paul International Airport / Wold–Chamberlain Field (KMSP)

Arrival

Time N/A
Airport Dublin Airport (EIDW)
Time Latitude Longitude Altitude Speed Heading
2026-05-04 12:27 44.88130 -93.21298 849 ft 0 kts 42°
2026-05-04 12:44 44.88122 -93.21309 849 ft 2 kts 42°
2026-05-04 12:45 44.88112 -93.21323 849 ft 2 kts 42°
2026-05-04 12:45 44.88102 -93.21335 849 ft 2 kts 45°
2026-05-04 12:45 44.88093 -93.21350 849 ft 2 kts 62°
2026-05-04 12:45 44.88087 -93.21370 849 ft 2 kts 75°
2026-05-04 12:46 44.88084 -93.21391 849 ft 2 kts 88°
2026-05-04 12:46 44.88086 -93.21413 849 ft 2 kts 103°
2026-05-04 12:46 44.88090 -93.21433 849 ft 2 kts 116°
2026-05-04 12:46 44.88098 -93.21451 849 ft 2 kts 130°
2026-05-04 12:47 44.88109 -93.21465 849 ft 2 kts 143°
2026-05-04 12:47 44.88117 -93.21473 849 ft 1 kts 152°
2026-05-04 12:47 44.88121 -93.21476 849 ft 0 kts 153°
2026-05-04 12:49 44.88119 -93.21474 849 ft 1 kts 153°
2026-05-04 12:49 44.88072 -93.21426 849 ft 6 kts 137°
2026-05-04 12:50 44.88036 -93.21375 849 ft 8 kts 135°
2026-05-04 12:50 44.87997 -93.21308 849 ft 12 kts 124°
2026-05-04 12:50 44.87949 -93.21204 849 ft 14 kts 122°
2026-05-04 12:50 44.87917 -93.21127 849 ft 0 kts 121°
2026-05-04 12:51 44.87911 -93.21113 849 ft 8 kts 121°
2026-05-04 12:51 44.87865 -93.21002 849 ft 14 kts 120°
2026-05-04 12:51 44.87817 -93.20892 849 ft 14 kts 122°
2026-05-04 12:51 44.87761 -93.20764 849 ft 15 kts 122°
2026-05-04 12:52 44.87700 -93.20629 849 ft 16 kts 123°
2026-05-04 12:52 44.87640 -93.20486 849 ft 16 kts 121°
2026-05-04 12:52 44.87582 -93.20349 849 ft 16 kts 120°
2026-05-04 12:52 44.87519 -93.20203 849 ft 17 kts 122°
2026-05-04 12:53 44.87454 -93.20089 849 ft 12 kts 158°
2026-05-04 12:53 44.87373 -93.20131 849 ft 11 kts 252°
2026-05-04 12:53 44.87407 -93.20237 849 ft 12 kts 302°
2026-05-04 12:53 44.87493 -93.20439 849 ft 54 kts 297°
2026-05-04 12:54 44.87830 -93.21230 849 ft 127 kts 302°
2026-05-04 12:54 44.88377 -93.22501 1070 ft 162 kts 296°
2026-05-04 12:54 44.88971 -93.23903 1749 ft 164 kts 297°
2026-05-04 12:54 44.89643 -93.25178 2424 ft 164 kts 307°
2026-05-04 12:55 44.90427 -93.26424 2921 ft 173 kts 306°
2026-05-04 12:55 44.91257 -93.27818 3255 ft 194 kts 306°
2026-05-04 12:55 44.92150 -93.29360 3619 ft 216 kts 306°
2026-05-04 12:55 44.93196 -93.31016 4114 ft 237 kts 319°
2026-05-04 12:56 44.94809 -93.31999 4631 ft 262 kts 348°
2026-05-04 12:56 44.96662 -93.32042 5474 ft 269 kts 358°
2026-05-04 12:56 44.98552 -93.31872 6388 ft 270 kts 360°
2026-05-04 12:56 45.00414 -93.31303 7174 ft 282 kts 24°
2026-05-04 12:57 45.01873 -93.29389 7899 ft 296 kts 56°
2026-05-04 12:57 45.02814 -93.26740 8753 ft 298 kts 61°
2026-05-04 12:57 45.03716 -93.24044 9530 ft 300 kts 60°
2026-05-04 12:57 45.04650 -93.21343 10154 ft 308 kts 60°
2026-05-04 12:58 45.05666 -93.18496 10496 ft 325 kts 59°
2026-05-04 12:58 45.06736 -93.15553 10807 ft 342 kts 59°
2026-05-04 12:58 45.07875 -93.12447 11106 ft 359 kts 60°
2026-05-04 12:58 45.09071 -93.09197 11392 ft 375 kts 60°
2026-05-04 12:59 45.10325 -93.05788 11664 ft 391 kts 60°
2026-05-04 12:59 45.11615 -93.02308 11951 ft 404 kts 60°
2026-05-04 12:59 45.12962 -92.98669 12486 ft 410 kts 60°
2026-05-04 12:59 45.14299 -92.95035 13122 ft 413 kts 60°
2026-05-04 13:00 45.15642 -92.91370 13711 ft 417 kts 60°
2026-05-04 13:00 45.17012 -92.87623 14281 ft 421 kts 61°
2026-05-04 13:00 45.18383 -92.83865 14840 ft 425 kts 61°
2026-05-04 13:00 45.19756 -92.80093 15392 ft 428 kts 60°
2026-05-04 13:01 45.21143 -92.76278 15926 ft 432 kts 60°
2026-05-04 13:01 45.22543 -92.72424 16446 ft 435 kts 60°
2026-05-04 13:01 45.23899 -92.68535 16950 ft 439 kts 64°
2026-05-04 13:01 45.25060 -92.64401 17452 ft 444 kts 69°
2026-05-04 13:02 45.25944 -92.60116 17938 ft 448 kts 75°
2026-05-04 13:02 45.26618 -92.55721 18413 ft 452 kts 76°
2026-05-04 13:02 45.27242 -92.51253 18869 ft 455 kts 77°
2026-05-04 13:02 45.27855 -92.46782 19316 ft 458 kts 77°
2026-05-04 13:03 45.28477 -92.42281 19813 ft 459 kts 77°
2026-05-04 13:03 45.29094 -92.37838 20498 ft 456 kts 76°
2026-05-04 13:03 45.29728 -92.33303 21002 ft 457 kts 77°
2026-05-04 13:03 45.30355 -92.28829 21386 ft 461 kts 77°
2026-05-04 13:04 45.30996 -92.24269 21772 ft 464 kts 77°
2026-05-04 13:04 45.31633 -92.19745 22159 ft 467 kts 77°
2026-05-04 13:04 45.32287 -92.15066 22547 ft 469 kts 77°
2026-05-04 13:04 45.32932 -92.10433 22909 ft 472 kts 77°
2026-05-04 13:05 45.33579 -92.05754 23264 ft 475 kts 77°
2026-05-04 13:05 45.34230 -92.01038 23657 ft 476 kts 77°
2026-05-04 13:05 45.34871 -91.96360 24149 ft 475 kts 77°
2026-05-04 13:05 45.35509 -91.91693 24642 ft 473 kts 77°
2026-05-04 13:06 45.36145 -91.87033 25098 ft 473 kts 77°
2026-05-04 13:06 45.36785 -91.82320 25535 ft 472 kts 77°
2026-05-04 13:06 45.37418 -91.77649 25960 ft 472 kts 77°
2026-05-04 13:06 45.38044 -91.73009 26369 ft 471 kts 77°
2026-05-04 13:07 45.38668 -91.68368 26770 ft 471 kts 77°
2026-05-04 13:07 45.39286 -91.63765 27163 ft 470 kts 77°
2026-05-04 13:07 45.39908 -91.59116 27554 ft 470 kts 77°
2026-05-04 13:07 45.40527 -91.54463 27934 ft 469 kts 77°
2026-05-04 13:08 45.41142 -91.49833 28307 ft 469 kts 77°
2026-05-04 13:08 45.41760 -91.45164 28683 ft 468 kts 77°
2026-05-04 13:08 45.42368 -91.40556 29037 ft 468 kts 76°
2026-05-04 13:08 45.42974 -91.35947 29394 ft 467 kts 77°
2026-05-04 13:09 45.43573 -91.31362 29741 ft 466 kts 77°
2026-05-04 13:09 45.44177 -91.26716 30073 ft 466 kts 77°
2026-05-04 13:09 45.44771 -91.22131 30396 ft 465 kts 77°
2026-05-04 13:09 45.45369 -91.17506 30725 ft 465 kts 77°
2026-05-04 13:10 45.45960 -91.12940 31003 ft 465 kts 78°
2026-05-04 13:10 45.46559 -91.08304 31239 ft 466 kts 78°
2026-05-04 13:10 45.47152 -91.03713 31474 ft 467 kts 78°
2026-05-04 13:10 45.47847 -90.99101 31728 ft 467 kts 76°
2026-05-04 13:11 45.48620 -90.94557 32000 ft 466 kts 76°
2026-05-04 13:11 45.49400 -90.90025 32271 ft 466 kts 76°
2026-05-04 13:11 45.50177 -90.85506 32536 ft 465 kts 76°
2026-05-04 13:11 45.50953 -90.80971 32783 ft 465 kts 76°
2026-05-04 13:12 45.51730 -90.76412 32989 ft 466 kts 76°
2026-05-04 13:12 45.52506 -90.71841 33161 ft 467 kts 76°
2026-05-04 13:12 45.53277 -90.67276 33333 ft 468 kts 76°
2026-05-04 13:12 45.54052 -90.62680 33513 ft 469 kts 76°
2026-05-04 13:13 45.54819 -90.58114 33685 ft 470 kts 76°
2026-05-04 13:13 45.55586 -90.53539 33844 ft 470 kts 76°
2026-05-04 13:13 45.56350 -90.48969 34001 ft 471 kts 76°
2026-05-04 13:13 45.57076 -90.44614 34143 ft 472 kts 76°
2026-05-04 13:14 45.57836 -90.40042 34289 ft 473 kts 76°
2026-05-04 13:14 45.58481 -90.36153 34421 ft 473 kts 76°
2026-05-04 13:14 45.59247 -90.31514 34443 ft 474 kts 76°
2026-05-04 13:15 45.60755 -90.22325 34452 ft 474 kts 76°
2026-05-04 13:15 45.62270 -90.13069 34454 ft 474 kts 76°
2026-05-04 13:16 45.63694 -90.04325 34459 ft 475 kts 76°
2026-05-04 13:16 45.65151 -89.95333 34465 ft 475 kts 76°
2026-05-04 13:17 45.66656 -89.85992 34469 ft 475 kts 76°
2026-05-04 13:17 45.68150 -89.76677 34468 ft 474 kts 76°
2026-05-04 13:18 45.69639 -89.67340 34466 ft 475 kts 76°
2026-05-04 13:18 45.71122 -89.57986 34466 ft 475 kts 76°
2026-05-04 13:19 45.72587 -89.48692 34470 ft 475 kts 76°
2026-05-04 13:19 45.74054 -89.39333 34471 ft 475 kts 76°
2026-05-04 13:20 45.75432 -89.30484 34465 ft 474 kts 77°
2026-05-04 13:20 45.76825 -89.21468 34456 ft 474 kts 77°
2026-05-04 13:21 45.78215 -89.12437 34449 ft 475 kts 77°
2026-05-04 13:21 45.79645 -89.03101 34444 ft 474 kts 77°
2026-05-04 13:22 45.81088 -88.93647 34440 ft 478 kts 78°
2026-05-04 13:22 45.82522 -88.84199 34476 ft 478 kts 77°
2026-05-04 13:22 45.83198 -88.79559 34577 ft 462 kts 78°
2026-05-04 13:23 45.83876 -88.75003 34694 ft 456 kts 77°
2026-05-04 13:23 45.84548 -88.70567 34798 ft 454 kts 77°
2026-05-04 13:23 45.85231 -88.66052 34875 ft 453 kts 77°
2026-05-04 13:24 45.86583 -88.57033 34961 ft 452 kts 77°
2026-05-04 13:24 45.87902 -88.48141 34996 ft 452 kts 77°
2026-05-04 13:25 45.89875 -88.34725 35013 ft 451 kts 78°
2026-05-04 13:25 45.91183 -88.25735 35018 ft 451 kts 78°
2026-05-04 13:26 45.92475 -88.16800 35019 ft 451 kts 78°
2026-05-04 13:26 45.93776 -88.07774 35019 ft 451 kts 78°
2026-05-04 13:27 45.95072 -87.98724 35019 ft 451 kts 78°
2026-05-04 13:27 45.96342 -87.89806 35019 ft 451 kts 78°
2026-05-04 13:28 45.97617 -87.80802 35018 ft 451 kts 78°
2026-05-04 13:28 45.98894 -87.71723 35018 ft 451 kts 78°
2026-05-04 13:29 46.00132 -87.62874 35018 ft 451 kts 78°
2026-05-04 13:29 46.01373 -87.53953 35018 ft 451 kts 78°
2026-05-04 13:30 46.02625 -87.44896 35018 ft 451 kts 78°
2026-05-04 13:30 46.03867 -87.35850 35018 ft 451 kts 78°
2026-05-04 13:31 46.05104 -87.26770 35019 ft 451 kts 79°
2026-05-04 13:31 46.06332 -87.17698 35019 ft 451 kts 79°
2026-05-04 13:32 46.07548 -87.08665 35019 ft 451 kts 79°
2026-05-04 13:32 46.08763 -86.99596 35019 ft 451 kts 79°
2026-05-04 13:33 46.09961 -86.90596 35019 ft 451 kts 79°
2026-05-04 13:33 46.11097 -86.82180 35019 ft 451 kts 79°
2026-05-04 13:34 46.11904 -86.76173 35019 ft 451 kts 79°
2026-05-04 13:34 46.13492 -86.64147 35019 ft 451 kts 79°
2026-05-04 13:35 46.15256 -86.50563 35019 ft 451 kts 79°
2026-05-04 13:36 46.16424 -86.41477 35019 ft 451 kts 79°
2026-05-04 13:36 46.17585 -86.32381 35019 ft 451 kts 80°
2026-05-04 13:37 46.18728 -86.23340 35018 ft 451 kts 80°
2026-05-04 13:37 46.19869 -86.14266 35018 ft 451 kts 80°
2026-05-04 13:38 46.20992 -86.05285 35018 ft 451 kts 79°
2026-05-04 13:38 46.22120 -85.96210 35019 ft 451 kts 79°
2026-05-04 13:39 46.23243 -85.87109 35019 ft 451 kts 79°
2026-05-04 13:39 46.24356 -85.78030 35019 ft 451 kts 79°
2026-05-04 13:40 46.25440 -85.69128 35019 ft 451 kts 79°
2026-05-04 13:40 46.26516 -85.60232 35019 ft 451 kts 79°
2026-05-04 13:41 46.27609 -85.51138 35019 ft 451 kts 79°
2026-05-04 13:41 46.28691 -85.42069 35019 ft 451 kts 79°
2026-05-04 13:42 46.30292 -85.28509 35019 ft 451 kts 81°
2026-05-04 13:42 46.31351 -85.19442 35018 ft 451 kts 81°
2026-05-04 13:43 46.32400 -85.10416 35018 ft 451 kts 81°
2026-05-04 13:43 46.33448 -85.01337 35019 ft 451 kts 81°
2026-05-04 13:44 46.34478 -84.92347 35019 ft 451 kts 81°
2026-05-04 13:44 46.35506 -84.83311 35019 ft 451 kts 81°
2026-05-04 13:45 46.36528 -84.74250 35019 ft 451 kts 81°
2026-05-04 13:45 46.37534 -84.65252 35019 ft 451 kts 81°
2026-05-04 13:46 46.38543 -84.56141 35019 ft 451 kts 81°
2026-05-04 13:46 46.39535 -84.47125 35019 ft 451 kts 81°
2026-05-04 13:47 46.40963 -84.38148 35018 ft 451 kts 71°
2026-05-04 13:47 46.43486 -84.29695 35018 ft 451 kts 61°
2026-05-04 13:48 46.47023 -84.22080 35019 ft 451 kts 50°
2026-05-04 13:48 46.51215 -84.15151 35019 ft 451 kts 48°
2026-05-04 13:49 46.55462 -84.08275 35019 ft 451 kts 48°
2026-05-04 13:49 46.59712 -84.01351 35019 ft 451 kts 48°
2026-05-04 13:50 46.63925 -83.94452 35019 ft 451 kts 48°
2026-05-04 13:50 46.68154 -83.87502 35018 ft 451 kts 48°
2026-05-04 13:51 46.72345 -83.80595 35018 ft 451 kts 48°
2026-05-04 13:51 46.76570 -83.73612 35018 ft 451 kts 48°
2026-05-04 13:52 46.82839 -83.63219 35018 ft 451 kts 48°
2026-05-04 13:53 46.87056 -83.56205 35018 ft 451 kts 48°
2026-05-04 13:53 46.91235 -83.49236 35018 ft 451 kts 48°
2026-05-04 13:54 46.97479 -83.38791 35018 ft 451 kts 48°
2026-05-04 13:55 47.03664 -83.28381 35019 ft 451 kts 49°
2026-05-04 13:55 47.09961 -83.17735 35019 ft 451 kts 49°
2026-05-04 13:56 47.14074 -83.10814 35019 ft 451 kts 49°
2026-05-04 13:57 47.20364 -83.00185 35019 ft 451 kts 49°
2026-05-04 13:58 47.28708 -82.85972 35019 ft 451 kts 49°
2026-05-04 13:58 47.34690 -82.75729 35019 ft 451 kts 49°
2026-05-04 13:59 47.38745 -82.68764 35019 ft 451 kts 49°
2026-05-04 14:00 47.44738 -82.58437 35019 ft 451 kts 49°
2026-05-04 14:00 47.50980 -82.47636 35019 ft 451 kts 49°
2026-05-04 14:01 47.53052 -82.44042 35019 ft 451 kts 49°
2026-05-04 14:02 47.61334 -82.29610 35019 ft 451 kts 50°
2026-05-04 14:02 47.65431 -82.22424 35019 ft 451 kts 50°
2026-05-04 14:03 47.69525 -82.15240 35019 ft 451 kts 50°
2026-05-04 14:03 47.73642 -82.08003 35019 ft 451 kts 50°
2026-05-04 14:04 47.79766 -81.97205 35019 ft 451 kts 50°
2026-05-04 14:04 47.83879 -81.89931 35019 ft 451 kts 50°
2026-05-04 14:05 47.89990 -81.79085 35018 ft 451 kts 50°
2026-05-04 14:06 47.94066 -81.71826 35018 ft 451 kts 50°
2026-05-04 14:06 47.98125 -81.64580 35018 ft 451 kts 50°
2026-05-04 14:07 48.02205 -81.57274 35018 ft 451 kts 50°
2026-05-04 14:07 48.06268 -81.49980 35018 ft 451 kts 50°
2026-05-04 14:08 48.10325 -81.42679 35018 ft 451 kts 50°
2026-05-04 14:08 48.14388 -81.35394 35019 ft 451 kts 50°
2026-05-04 14:09 48.20458 -81.24410 35018 ft 451 kts 50°
2026-05-04 14:10 48.26508 -81.13399 35018 ft 451 kts 50°
2026-05-04 14:10 48.30546 -81.06029 35018 ft 451 kts 50°
2026-05-04 14:11 48.34580 -80.98646 35019 ft 451 kts 50°
2026-05-04 14:11 48.40642 -80.87516 35019 ft 451 kts 50°
2026-05-04 14:12 48.44655 -80.80121 35019 ft 451 kts 50°
2026-05-04 14:13 48.50674 -80.68993 35019 ft 451 kts 50°
2026-05-04 14:13 48.54693 -80.61537 35019 ft 451 kts 50°
2026-05-04 14:14 48.58673 -80.54131 35018 ft 451 kts 50°
2026-05-04 14:14 48.64703 -80.42873 35018 ft 451 kts 50°
2026-05-04 14:15 48.72710 -80.27828 35019 ft 451 kts 51°
2026-05-04 14:16 48.78690 -80.16524 35019 ft 451 kts 51°
2026-05-04 14:17 48.84671 -80.05195 35019 ft 451 kts 51°
2026-05-04 14:18 48.90625 -79.93870 35019 ft 451 kts 51°
2026-05-04 14:19 48.98564 -79.78699 35018 ft 451 kts 51°
2026-05-04 14:19 49.02504 -79.71139 35018 ft 451 kts 51°
2026-05-04 14:20 49.06454 -79.63536 35018 ft 451 kts 51°
2026-05-04 14:20 49.10410 -79.55901 35018 ft 451 kts 51°
2026-05-04 14:21 49.16336 -79.44498 35019 ft 451 kts 51°
2026-05-04 14:21 49.20285 -79.36848 35019 ft 451 kts 51°
2026-05-04 14:22 49.24215 -79.29176 35019 ft 451 kts 52°
2026-05-04 14:22 49.28167 -79.21424 35018 ft 451 kts 52°
2026-05-04 14:23 49.34011 -79.09945 35018 ft 451 kts 52°
2026-05-04 14:24 49.37928 -79.02229 35019 ft 451 kts 52°
2026-05-04 14:24 49.41804 -78.94573 35019 ft 451 kts 52°
2026-05-04 14:25 49.45607 -78.87041 35019 ft 451 kts 52°
2026-05-04 14:25 49.51439 -78.75446 35019 ft 451 kts 52°
2026-05-04 14:26 49.55315 -78.67712 35019 ft 451 kts 52°
2026-05-04 14:26 49.59238 -78.59862 35018 ft 451 kts 52°
2026-05-04 14:27 49.63081 -78.52148 35018 ft 451 kts 52°
2026-05-04 14:27 49.66974 -78.44314 35018 ft 451 kts 52°
2026-05-04 14:28 49.70748 -78.36694 35018 ft 451 kts 52°
2026-05-04 14:28 49.74429 -78.29225 35019 ft 451 kts 53°
2026-05-04 14:29 49.81889 -78.14023 35019 ft 451 kts 53°
2026-05-04 14:30 49.85732 -78.06171 35019 ft 451 kts 53°
2026-05-04 14:31 49.91570 -77.94202 35019 ft 451 kts 53°
2026-05-04 14:32 49.99298 -77.78277 35018 ft 451 kts 53°
2026-05-04 14:32 50.03124 -77.70359 35018 ft 451 kts 53°
2026-05-04 14:33 50.06952 -77.62411 35018 ft 451 kts 53°
2026-05-04 14:33 50.10818 -77.54364 35018 ft 451 kts 52°
2026-05-04 14:34 50.14657 -77.46406 35019 ft 451 kts 52°
2026-05-04 14:34 50.18471 -77.38451 35019 ft 451 kts 53°
2026-05-04 14:35 50.22295 -77.30418 35019 ft 451 kts 53°
2026-05-04 14:35 50.26106 -77.22360 35018 ft 451 kts 53°
2026-05-04 14:36 50.29938 -77.14246 35018 ft 451 kts 53°
2026-05-04 14:36 50.33757 -77.06143 35018 ft 451 kts 53°
2026-05-04 14:37 50.37532 -76.98111 35019 ft 451 kts 53°
2026-05-04 14:37 50.41324 -76.90017 35019 ft 451 kts 53°
2026-05-04 14:38 50.45121 -76.81889 35019 ft 451 kts 53°
2026-05-04 14:38 50.48606 -76.74407 35019 ft 451 kts 53°
2026-05-04 14:39 50.52374 -76.66294 35019 ft 451 kts 53°
2026-05-04 14:39 50.55850 -76.58787 35018 ft 451 kts 53°
2026-05-04 14:40 50.61419 -76.46713 35018 ft 451 kts 53°
2026-05-04 14:40 50.65148 -76.38599 35018 ft 451 kts 53°
2026-05-04 14:41 50.68740 -76.30747 35018 ft 451 kts 54°
2026-05-04 14:42 50.76140 -76.14477 35019 ft 451 kts 54°
2026-05-04 14:42 50.79848 -76.06303 35019 ft 451 kts 54°
2026-05-04 14:43 50.83539 -75.98146 35019 ft 451 kts 54°
2026-05-04 14:43 50.87211 -75.90004 35019 ft 451 kts 54°
2026-05-04 14:44 50.90903 -75.81792 35018 ft 451 kts 54°
2026-05-04 14:44 50.94553 -75.73648 35018 ft 451 kts 54°
2026-05-04 14:45 50.98217 -75.65447 35018 ft 451 kts 54°
2026-05-04 14:45 51.01883 -75.57217 35018 ft 451 kts 54°
2026-05-04 14:46 51.05548 -75.48959 35018 ft 451 kts 54°
2026-05-04 14:46 51.09192 -75.40723 35018 ft 451 kts 54°
2026-05-04 14:47 51.12737 -75.32721 35018 ft 451 kts 55°
2026-05-04 14:47 51.16374 -75.24459 35018 ft 451 kts 55°
2026-05-04 14:48 51.20016 -75.16135 35018 ft 452 kts 55°
2026-05-04 14:48 51.23705 -75.07914 35018 ft 451 kts 52°
2026-05-04 14:49 51.27878 -75.00243 35018 ft 451 kts 45°
2026-05-04 14:49 51.32377 -74.93146 35018 ft 451 kts 44°
2026-05-04 14:50 51.36895 -74.86103 35019 ft 451 kts 44°
2026-05-04 14:50 51.41430 -74.78994 35019 ft 451 kts 44°
2026-05-04 14:51 51.45943 -74.71886 35019 ft 451 kts 44°
2026-05-04 14:51 51.50453 -74.64759 35019 ft 451 kts 44°
2026-05-04 14:52 51.54933 -74.57655 35019 ft 451 kts 44°
2026-05-04 14:52 51.59433 -74.50500 35018 ft 451 kts 44°
2026-05-04 14:53 51.63934 -74.43322 35018 ft 451 kts 44°
2026-05-04 14:53 51.68451 -74.36096 35018 ft 451 kts 44°
2026-05-04 14:54 51.72935 -74.28882 35019 ft 451 kts 45°
2026-05-04 14:54 51.77339 -74.21770 35019 ft 451 kts 45°
2026-05-04 14:55 51.81837 -74.14501 35019 ft 451 kts 45°
2026-05-04 14:55 51.86294 -74.07282 35019 ft 451 kts 45°
2026-05-04 14:56 51.90761 -74.00029 35019 ft 451 kts 45°
2026-05-04 14:56 51.95166 -73.92856 35019 ft 451 kts 45°
2026-05-04 14:57 51.99617 -73.85585 35018 ft 451 kts 45°
2026-05-04 14:57 52.04092 -73.78254 35018 ft 451 kts 45°
2026-05-04 14:58 52.08572 -73.70894 35018 ft 451 kts 45°
2026-05-04 14:58 52.12890 -73.63800 35019 ft 451 kts 45°
2026-05-04 14:59 52.16887 -73.57236 35019 ft 451 kts 45°
2026-05-04 15:00 52.23002 -73.47122 35019 ft 451 kts 45°
2026-05-04 15:00 52.27052 -73.40388 35019 ft 451 kts 45°
2026-05-04 15:01 52.33126 -73.30232 35019 ft 451 kts 46°
2026-05-04 15:01 52.37193 -73.23392 35018 ft 451 kts 46°
2026-05-04 15:02 52.41207 -73.16634 35018 ft 451 kts 46°
2026-05-04 15:02 52.45338 -73.09668 35018 ft 451 kts 46°
2026-05-04 15:03 52.49340 -73.02903 35018 ft 451 kts 46°
2026-05-04 15:03 52.53375 -72.96065 35019 ft 451 kts 46°
2026-05-04 15:04 52.57502 -72.89050 35019 ft 451 kts 46°
2026-05-04 15:04 52.61559 -72.82137 35018 ft 451 kts 46°
2026-05-04 15:05 52.65677 -72.75096 35018 ft 451 kts 46°
2026-05-04 15:05 52.69582 -72.68402 35018 ft 451 kts 46°
2026-05-04 15:06 52.73436 -72.61778 35018 ft 451 kts 46°
2026-05-04 15:07 52.79397 -72.51496 35018 ft 452 kts 46°
2026-05-04 15:07 52.83625 -72.44177 35018 ft 452 kts 46°
2026-05-04 15:08 52.87982 -72.36611 35018 ft 452 kts 46°
2026-05-04 15:08 52.92374 -72.28944 35019 ft 452 kts 47°
2026-05-04 15:09 52.96729 -72.21308 35019 ft 452 kts 46°
2026-05-04 15:09 53.01087 -72.13660 35019 ft 452 kts 46°
2026-05-04 15:10 53.07627 -72.02146 35019 ft 452 kts 46°
2026-05-04 15:11 53.13640 -71.91553 35019 ft 452 kts 46°
2026-05-04 15:11 53.17580 -71.84600 35019 ft 452 kts 46°
2026-05-04 15:12 53.21552 -71.77553 35019 ft 452 kts 46°
2026-05-04 15:12 53.25525 -71.70470 35019 ft 452 kts 46°
2026-05-04 15:13 53.29660 -71.63071 35019 ft 452 kts 46°
2026-05-04 15:13 53.33382 -71.56391 35019 ft 452 kts 46°
2026-05-04 15:14 53.37425 -71.49114 35019 ft 452 kts 46°
2026-05-04 15:14 53.41430 -71.41884 35019 ft 452 kts 46°
2026-05-04 15:15 53.45324 -71.34831 35019 ft 452 kts 47°
2026-05-04 15:15 53.49214 -71.27744 35019 ft 452 kts 47°
2026-05-04 15:16 53.55075 -71.17035 35019 ft 452 kts 47°
2026-05-04 15:17 53.60778 -71.06587 35019 ft 452 kts 47°
2026-05-04 15:17 53.66525 -70.96019 35019 ft 452 kts 47°
2026-05-04 15:18 53.70459 -70.88760 35018 ft 452 kts 47°
2026-05-04 15:19 53.76144 -70.78231 35018 ft 452 kts 47°
2026-05-04 15:19 53.81788 -70.67732 35018 ft 452 kts 47°
2026-05-04 15:20 53.85627 -70.60564 35018 ft 452 kts 47°
2026-05-04 15:20 53.89405 -70.53490 35018 ft 452 kts 47°
2026-05-04 15:21 53.93372 -70.46040 35018 ft 452 kts 47°
2026-05-04 15:22 53.95929 -70.41227 35018 ft 452 kts 47°